This is the latest recevied weather packets stored in our database for station/object KA1JKB. If no packets are shown the sender has not sent any weather packets the latest 10 day(s).
| Time | Temp. | Humidity | Pressure | Rain* | Wind** | Luminosity | Snow |
|---|---|---|---|---|---|---|---|
| 1777913629 | 23.33° C | 36% | 1000.6 hPa | 0 mm | - | 721 W/m² | - |
| 1777913326 | 23.33° C | 36% | 1000.6 hPa | 0 mm | - | 721 W/m² | - |
| 1777913022 | 23.33° C | 34% | 1000.6 hPa | 0 mm | - | 714 W/m² | - |
| 1777912718 | 22.78° C | 34% | 1000.7 hPa | 0 mm | - | 698 W/m² | - |
| 1777912415 | 22.78° C | 35% | 1001.1 hPa | 0 mm | - | 711 W/m² | - |
| 1777912111 | 22.78° C | 35% | 1001.1 hPa | 0 mm | - | 719 W/m² | - |
| 1777911807 | 22.78° C | 39% | 1001 hPa | 0 mm | - | 713 W/m² | - |
| 1777911504 | 22.22° C | 36% | 1000.8 hPa | 0 mm | - | 653 W/m² | - |
| 1777911201 | 22.22° C | 43% | 1000.8 hPa | 0 mm | - | 688 W/m² | - |
| 1777910898 | 22.22° C | 42% | 1001.3 hPa | 0 mm | - | 707 W/m² | - |
| 1777910595 | 22.22° C | 43% | 1001.2 hPa | 0 mm | - | 736 W/m² | - |
| 1777910292 | 22.22° C | 44% | 1001.3 hPa | 0 mm | - | 737 W/m² | - |
| 1777909988 | 21.67° C | 47% | 1001.3 hPa | 0 mm | - | 734 W/m² | - |
| 1777909686 | 21.67° C | 46% | 1001.4 hPa | 0 mm | - | 731 W/m² | - |
| 1777909383 | 21.67° C | 50% | 1001.3 hPa | 0 mm | - | 788 W/m² | - |
| 1777909081 | 21.11° C | 50% | 1001.3 hPa | 0 mm | - | 764 W/m² | - |
| 1777908778 | 21.11° C | 49% | 1001.3 hPa | 0 mm | - | 791 W/m² | - |
| 1777908475 | 21.11° C | 53% | 1001.4 hPa | 0 mm | - | 799 W/m² | - |
| 1777908171 | 20.56° C | 51% | 1001.5 hPa | 0 mm | - | 788 W/m² | - |
| 1777907868 | 20.56° C | 51% | 1001.5 hPa | 0 mm | - | 783 W/m² | - |
| 1777907563 | 20.56° C | 50% | 1001.7 hPa | 0 mm | - | 805 W/m² | - |
| 1777907259 | 20° C | 51% | 1001.8 hPa | 0 mm | - | 784 W/m² | - |
| 1777906956 | 19.44° C | 52% | 1001.6 hPa | 0 mm | - | 812 W/m² | - |
| 1777906654 | 19.44° C | 53% | 1001.7 hPa | 0 mm | - | 814 W/m² | - |
| 1777906350 | 19.44° C | 55% | 1001.6 hPa | 0 mm | - | 795 W/m² | - |
* Rain latest hour (hover to see other rain measurements)
** Current wind speed in m/s (hover to see current wind gust speed)